Regional Weather Roundup
Issued by NWS

Home | Current Version | Previous Version | Graphics & Text | Print | Product List | Glossary On
Versions: 1 2 3 4 5 6 7 8 9 10 11 12 13 14 15 16 17 18 19 20 21 22 23 24 25 26 27 28
000
ASUS45 KSLC 232310
RWRUT

UTAH REGIONAL WEATHER ROUNDUP
NATIONAL WEATHER SERVICE SALT LAKE CITY UT
500 PM MDT FRI SEP 23 2016

UTZ001>011-023>025-240000-

NORTHERN UTAH

CITY           SKY/WX    TMP DP  RH WIND       PRES   REMARKS
BRIGHAM CITY     N/A     49  44  82 S6        30.02R
HILL AFB       LGT RAIN  46  43  92 SW9       30.03R
LOGAN          LGT RAIN  48  43  82 S9        30.00R
OGDEN          LGT RAIN  47  44  90 SW8       30.02R
PROVO AIRPORT  LGT RAIN  48  43  81 SW12      30.06R
SALT LAKE CITY RAIN      48  45  89 N7        30.04R FOG
VERNAL         CLOUDY    52  37  56 VRB3      30.00F
WENDOVER       CLOUDY    50  43  76 S8        30.03R
HEBER CITY     CLOUDY    46  36  66 SW10      30.01R
WEST JORDAN    CLOUDY    47  43  85 NW6       30.05R

$$

UTZ012>022-026-027-240000-

SOUTHERN/CENTRAL UTAH

CITY           SKY/WX    TMP DP  RH WIND       PRES   REMARKS
BLANDING       MOSUNNY   59  20  22 SW17G25   30.10S
BRYCE CANYON   CLOUDY    48  29  47 W12       30.11R
CEDAR CITY     CLOUDY    57  30  35 W16       30.06R
DELTA          CLOUDY    46  43  87 NE3       30.08R
MILFORD        CLOUDY    58  35  42 N13       30.05R
MOAB/CYNLANDS  PTSUNNY   62  32  32 SW21G30   29.95R
PRICE          CLOUDY    50  36  58 N5        30.02R
ST GEORGE      CLOUDY    72  28  20 SW21      30.01R

$$

REGIONAL REPORTS     COLORADO/ARIZONA

CITY           SKY/WX    TMP DP  RH WIND       PRES   REMARKS
CRAIG, CO      CLOUDY    48  38  68 E10       30.03F
GRAND JUNCTION LGT RAIN  51  37  58 S33G47    30.02R
RIFLE          CLOUDY    53  36  52 E13       30.03S
MONTROSE       PTSUNNY   59  21  23 VRB5      30.02F
CORTEZ         CLOUDY    47  40  76 E5        30.08F
PAGE, AZ       SUNNY     68  25  19 W9G21     30.00S
GRAND CANYON   SUNNY     57  25  29 VRB7G17   30.12R
KINGMAN        SUNNY     72  23  16 CALM      30.04S
FLAGSTAFF      SUNNY     56  21  25 SW8       30.13R

$$

REGIONAL REPORTS    NEVADA/IDAHO/WYOMING

CITY           SKY/WX    TMP DP  RH WIND       PRES   REMARKS
LAS VEGAS, NV  SUNNY     80  24  12 NE7       29.97F
ELY            CLOUDY    50  36  58 N12       30.12F
ELKO           PTSUNNY   59  32  36 W22       30.07R
POCATELLO, ID  PTSUNNY   51  44  77 SW13      29.95R
BURLEY         LGT RAIN  50  48  93 W7        29.94R
EVANSTON, WY   CLOUDY    40  37  89 W14       30.02R WCI  32
ROCK SPRINGS   CLOUDY    48  35  60 S7        29.99S

$$




USA.gov is the U.S. government's official web portal to all federal, state and local government web resources and services.